This is the latest recevied weather packets stored in our database for station/object DD6UBW. If no packets are shown the sender has not sent any weather packets the latest 10 day(s).
| Time | Temp. | Humidity | Pressure | Rain* | Wind** | Luminosity | Snow |
|---|---|---|---|---|---|---|---|
| 1788294601 | 18.89° C | 68% | 1017.6 hPa | 0.51 mm | - | - | - |
| 1788292800 | 19.44° C | 65% | 1017.6 hPa | 0.51 mm | - | - | - |
| 1788291001 | 20° C | 61% | 1017.6 hPa | 0.51 mm | - | - | - |
| 1788287401 | 21.11° C | 60% | 1016.6 hPa | 0.51 mm | - | - | - |
| 1788285605 | 21.11° C | 59% | 1016.6 hPa | 0.51 mm | - | - | - |
| 1788283800 | 21.67° C | 57% | 1016.6 hPa | 0.51 mm | - | - | - |
| 1788282001 | 22.22° C | 55% | 1015.6 hPa | 0.51 mm | - | - | - |
| 1788280200 | 22.78° C | 52% | 1016.6 hPa | 0.51 mm | - | - | - |
| 1788278401 | 23.33° C | 50% | 1015.6 hPa | 0.51 mm | - | - | - |
| 1788276601 | 24.44° C | 50% | 1015.6 hPa | 0.51 mm | - | - | - |
| 1788274801 | 22.78° C | 54% | 1015.6 hPa | 0.51 mm | - | - | - |
| 1788273001 | 23.33° C | 54% | 1015.6 hPa | 0.51 mm | - | - | - |
| 1788271201 | 22.22° C | 56% | 1015.6 hPa | 0.51 mm | - | - | - |
| 1788269401 | 22.78° C | 57% | 1016.6 hPa | 0.51 mm | - | - | - |
| 1788267601 | 22.22° C | 59% | 1016.6 hPa | 0.51 mm | - | - | - |
| 1788265800 | 21.67° C | 64% | 1016.6 hPa | 0.51 mm | - | - | - |
| 1788264025 | 20° C | 68% | 1016.6 hPa | 0.51 mm | - | - | - |
| 1788262218 | 22.22° C | 59% | 1016.6 hPa | 0.25 mm | - | - | - |
| 1788260401 | 21.67° C | 62% | 1016.6 hPa | 0.25 mm | - | - | - |
| 1788258601 | 21.67° C | 62% | 1016.6 hPa | 0.25 mm | - | - | - |
| 1788256801 | 19.44° C | 70% | 1016.6 hPa | 0.25 mm | - | - | - |
| 1788255001 | 18.89° C | 73% | 1016.6 hPa | 0.25 mm | - | - | - |
| 1788253201 | 18.33° C | 76% | 1015.6 hPa | 0.25 mm | - | - | - |
| 1788251401 | 17.78° C | 79% | 1015.6 hPa | 0.25 mm | - | - | - |
| 1788249601 | 17.22° C | 80% | 1015.6 hPa | 0.25 mm | - | - | - |
* Rain since midnight (hover to see other rain measurements)
** Current wind speed in m/s (hover to see current wind gust speed)